Location: Unspecified
(35.6961°N, 0.0000°E)
Time: 17:06:06
(UTC+00:00)

S-56A Canister/Altair - Pass Details

Date: 27 May 2019
Orbit: 633 x 2499 km, 38.9° (Epoch: 18 June)

Event Time Altitude Azimuth Distance (km) Brightness Sun altitude
Rises 21:32:54 0° 190° (S) 2,902 - -23.5°
Reaches altitude 10° 21:36:43 10° 155° (SSE) 2,058 - -24.0°
Maximum altitude 21:38:15 11° 135° (SE) 2,014 - -24.1°
Drops below altitude 10° 21:39:51 10° 116° (ESE) 2,187 - -24.3°
Sets 21:44:19 0° 84° (E) 3,400 - -24.8°
